EW9634 Weather Reports


Display with metric or nautical units.
time (UTC)temp
F
wind
direction
speed
MPH
gust
MPH
rain 1hr
in
rain 24hr
in
rain mn
in
humidity
%
barometer
mb
20260509192003 81 270 8.0 10.0 0.00 0.01 0.01 46 1006.6
20260509191003 80 248 9.0 15.0 0.00 0.01 0.01 48 1006.8
20260509190011 80 270 8.0 11.0 0.00 0.01 0.01 46 1006.8
20260509185003 80 248 10.0 15.0 0.00 0.01 0.01 49 1006.9
20260509184003 80 225 12.0 16.0 0.00 0.01 0.01 48 1006.9
20260509183004 79 225 7.0 11.0 0.00 0.01 0.01 53 1006.9
20260509182003 79 270 9.0 12.0 0.00 0.01 0.01 48 1007.0
20260509181003 79 225 10.0 14.0 0.00 0.01 0.01 50 1007.1
20260509180008 79 270 10.0 13.0 0.00 0.01 0.01 50 1007.2
20260509175003 78 248 10.0 12.0 0.00 0.01 0.01 52 1007.3
20260509174004 77 270 8.0 9.0 0.00 0.01 0.01 52 1007.4
20260509173003 77 270 8.0 11.0 0.00 0.01 0.01 54 1007.5
20260509172003 76 270 8.0 10.0 0.00 0.01 0.01 53 1007.6
20260509171003 76 248 9.0 10.0 0.00 0.01 0.01 55 1007.7
20260509170004 76 248 6.0 8.0 0.00 0.01 0.01 56 1007.7
20260509165003 74 248 6.0 8.0 0.00 0.01 0.01 57 1007.9
20260509164003 75 248 8.0 13.0 0.00 0.01 0.01 55 1007.8
20260509163023 74 248 8.0 12.0 0.00 0.01 0.01 57 1007.8
20260509162003 74 225 7.0 10.0 0.00 0.01 0.01 58 1007.7
20260509161003 73 225 7.0 9.0 0.00 0.01 0.01 61 1007.6
20260509160003 73 248 8.0 11.0 0.00 0.01 0.01 59 1007.6
20260509155023 72 248 6.0 9.0 0.00 0.01 0.01 61 1007.6
20260509154003 71 270 8.0 13.0 0.00 0.01 0.01 61 1007.5
20260509153003 71 248 11.0 13.0 0.00 0.01 0.01 62 1007.6
20260509152002 71 270 8.0 11.0 0.00 0.01 0.01 68 1007.7
20260509151023 70 270 10.0 12.0 0.00 0.01 0.01 65 1007.5
20260509150024 69 270 12.0 15.0 0.00 0.01 0.01 66 1007.4
20260509145002 68 270 9.0 12.0 0.00 0.01 0.01 69 1007.3
20260509144003 67 248 12.0 17.0 0.00 0.01 0.01 70 1007.4
20260509143003 66 270 10.0 11.0 0.00 0.01 0.01 72 1007.5
20260509142002 65 270 6.0 9.0 0.00 0.01 0.01 74 1007.4
20260509141043 64 225 7.0 11.0 0.00 0.01 0.01 75 1007.4
20260509140008 64 270 9.0 12.0 0.00 0.01 0.01 76 1007.5
20260509135002 63 248 7.0 11.0 0.00 0.01 0.01 78 1007.3
20260509134003 62 270 8.0 10.0 0.00 0.01 0.01 79 1007.3
20260509133007 61 270 8.0 10.0 0.00 0.01 0.01 81 1007.2
20260509132002 60 270 6.0 9.0 0.00 0.01 0.01 83 1007.3
20260509131043 59 248 6.0 9.0 0.00 0.01 0.01 85 1007.3
20260509130003 58 248 6.0 9.0 0.00 0.01 0.01 87 1007.3
20260509125002 57 248 6.0 10.0 0.00 0.01 0.01 88 1007.2
20260509124002 57 248 5.0 13.0 0.00 0.01 0.01 88 1007.0
20260509123002 56 248 7.0 10.0 0.00 0.01 0.01 89 1006.8
20260509122002 56 248 3.0 7.0 0.00 0.01 0.01 90 1006.6
20260509121002 55 248 5.0 8.0 0.00 0.01 0.01 91 1006.6
20260509120002 54 248 3.0 6.0 0.00 0.01 0.01 92 1006.4
20260509115023 54 225 3.0 4.0 0.01 0.01 0.01 92 1006.3
20260509114002 54 225 3.0 5.0 0.01 0.01 0.01 93 1006.2
20260509113042 54 225 2.0 4.0 0.01 0.01 0.01 92 1006.1
20260509112002 54 248 3.0 5.0 0.01 0.01 0.01 93 1005.9
20260509111002 54 225 4.0 9.0 0.01 0.01 0.01 93 1006.0
20260509110002 54 225 5.0 7.0 0.01 0.01 0.01 94 1005.9
20260509105002 54 225 5.0 9.0 0.00 0.00 0.00 94 1005.6
20260509104002 54 203 4.0 8.0 0.00 0.00 0.00 95 1005.6
20260509103002 54 203 4.0 6.0 0.00 0.00 0.00 95 1005.7
20260509102002 54 180 4.0 5.0 0.00 0.00 0.00 95 1005.8
20260509101002 54 203 6.0 7.0 0.00 0.00 0.00 96 1005.9
20260509100043 55 203 5.0 7.0 0.00 0.00 0.00 96 1006.0
20260509095002 55 203 4.0 5.0 0.00 0.00 0.00 96 1006.0
20260509094002 55 203 4.0 6.0 0.00 0.00 0.00 96 1006.0
20260509093002 55 203 6.0 9.0 0.00 0.00 0.00 97 1006.1
20260509092002 55 203 6.0 8.0 0.00 0.00 0.00 96 1006.2
20260509090007 55 225 5.0 8.0 0.00 0.00 0.00 97 1006.0
20260509085002 55 203 5.0 8.0 0.00 0.00 0.00 97 1005.9
20260509084002 54 203 4.0 5.0 0.00 0.00 0.00 97 1005.8
20260509083002 54 203 4.0 6.0 0.00 0.00 0.00 97 1005.9
20260509082002 54 203 4.0 5.0 0.00 0.00 0.00 97 1005.9
20260509081002 54 203 4.0 5.0 0.00 0.00 0.00 97 1006.0
20260509080008 55 203 4.0 6.0 0.00 0.00 0.00 97 1006.0
20260509075004 55 203 4.0 5.0 0.00 0.00 0.00 97 1005.9
20260509074004 55 203 5.0 6.0 0.00 0.00 0.00 97 1006.0
20260509073004 55 203 4.0 6.0 0.00 0.00 0.00 97 1006.1
20260509072004 56 203 3.0 5.0 0.00 0.00 0.00 97 1006.2
20260509071004 56 225 3.0 5.0 0.00 0.00 0.00 97 1006.3
20260509070008 56 203 3.0 7.0 0.00 0.00 0.00 97 1006.3
20260509065004 56 180 3.0 4.0 0.00 0.00 0.00 96 1006.4
20260509064004 55 203 4.0 6.0 0.00 0.00 0.00 96 1006.6
20260509063024 55 203 4.0 5.0 0.00 0.00 0.00 96 1006.6
20260509062003 55 203 2.0 3.0 0.00 0.00 0.00 96 1006.6
20260509061004 55 203 2.0 3.0 0.00 0.00 0.00 96 1006.5
20260509060004 54 203 1.0 1.0 0.00 0.00 0.00 96 1006.5
20260509055003 55 203 1.0 2.0 0.00 0.00 0.00 96 1006.5
20260509054003 55 203 2.0 3.0 0.00 0.00 0.00 96 1006.6
20260509053004 55 203 2.0 3.0 0.00 0.00 0.00 96 1006.5
20260509052004 55 203 3.0 4.0 0.00 0.00 0.00 96 1006.6
20260509051004 55 203 4.0 5.0 0.00 0.00 0.00 96 1006.7
20260509050124 54 203 2.0 5.0 0.00 0.00 0.00 96 1006.5
20260509045102 53 180 2.0 3.0 0.00 0.00 0.00 95 1006.3
20260509044102 52 0.0 0.0 0.00 0.00 0.00 95 1006.3
20260509043102 52 203 1.0 2.0 0.00 0.00 0.00 94 1006.3
20260509042122 52 225 2.0 2.0 0.00 0.00 0.00 94 1006.4
20260509041102 52 225 1.0 1.0 0.00 0.00 0.00 94 1006.6
20260509035102 53 0.0 0.0 0.00 0.00 0.00 93 1006.5
20260509034101 54 0.0 0.0 0.00 0.00 0.00 92 1006.6
20260509033102 54 225 2.0 2.0 0.00 0.00 0.00 91 1006.6
20260509032122 56 0.0 0.0 0.00 0.00 0.00 90 1006.7
20260509031102 56 225 1.0 2.0 0.00 0.00 0.00 92 1006.5
20260509030122 55 225 2.0 3.0 0.00 0.00 0.00 92 1006.5
20260509025102 55 248 3.0 3.0 0.00 0.00 0.00 93 1006.3
20260509024102 55 0.0 0.0 0.00 0.00 0.00 91 1006.1
20260509023142 55 270 1.0 2.0 0.00 0.00 0.00 90 1006.0
20260509022122 56 0.0 0.0 0.00 0.00 0.00 88 1005.9
20260509021101 57 0.0 0.0 0.00 0.00 0.00 87 1005.8
20260509015101 58 293 2.0 3.0 0.00 0.00 0.00 86 1005.8
20260509014004 59 293 1.0 1.0 0.00 0.00 0.00 84 1005.8
20260509013005 61 293 1.0 2.0 0.00 0.00 0.00 82 1005.7
20260509012004 61 293 3.0 4.0 0.00 0.00 0.00 81 1005.6
20260509011003 62 293 2.0 3.0 0.00 0.00 0.00 80 1005.3
20260509010008 63 293 3.0 4.0 0.00 0.00 0.00 79 1005.1
20260509005003 64 293 3.0 4.0 0.00 0.00 0.00 78 1005.0
20260509004003 65 315 2.0 3.0 0.00 0.00 0.00 76 1004.9
20260509003004 65 315 2.0 3.0 0.00 0.00 0.00 75 1004.7
20260509002024 65 23 2.0 2.0 0.00 0.00 0.00 77 1004.8
20260509001004 65 0.0 0.0 0.00 0.00 0.00 77 1004.8
20260509000005 65 90 1.0 1.0 0.00 0.00 0.00 78 1004.7
20260508235003 65 0.0 0.0 0.00 0.00 0.00 78 1004.7
20260508234003 65 0.0 1.0 0.00 0.00 0.00 78 1004.7
20260508233004 64 113 1.0 2.0 0.00 0.00 0.00 81 1004.5
20260508232023 64 113 1.0 2.0 0.00 0.00 0.00 79 1004.4
20260508231024 64 90 4.0 6.0 0.00 0.00 0.00 78 1004.3
20260508230010 65 113 3.0 4.0 0.00 0.00 0.00 80 1004.5
20260508225003 64 113 5.0 6.0 0.00 0.00 0.00 81 1004.3
20260508224003 64 90 2.0 3.0 0.00 0.00 0.00 82 1004.4
20260508223023 64 23 4.0 5.0 0.00 0.00 0.00 80 1004.4
20260508222023 64 23 6.0 9.0 0.00 0.00 0.00 82 1004.8
20260508221004 63 338 8.0 11.0 0.00 0.00 0.00 82 1005.0
20260508220015 64 338 12.0 15.0 0.00 0.00 0.00 82 1005.1
20260508215004 64 338 11.0 13.0 0.00 0.00 0.00 82 1005.3
20260508214003 64 338 12.0 13.0 0.00 0.00 0.00 80 1005.2
20260508213003 65 338 8.0 12.0 0.00 0.00 0.00 79 1005.4
20260508212004 65 338 9.0 12.0 0.00 0.00 0.00 78 1005.6
20260508211003 66 338 10.0 12.0 0.00 0.00 0.00 76 1005.6
20260508210017 67 293 5.0 7.0 0.00 0.00 0.00 76 1005.6
20260508205004 67 293 9.0 10.0 0.00 0.00 0.00 76 1005.7
20260508204003 67 293 8.0 11.0 0.00 0.00 0.00 74 1005.7
20260508203024 67 338 3.0 5.0 0.00 0.00 0.00 74 1005.3
20260508202008 67 293 3.0 4.0 0.00 0.00 0.00 73 1005.6
20260508201008 67 270 4.0 6.0 0.00 0.00 0.00 72 1006.1
20260508200008 66 270 6.0 9.0 0.00 0.00 0.00 75 1006.5
20260508195004 65 180 2.0 4.0 0.00 0.00 0.00 75 1005.7
20260508194003 66 180 4.0 5.0 0.00 0.00 0.00 73 1005.8
20260508193008 66 113 2.0 2.0 0.00 0.00 0.00 72 1005.4